Voltar ao catálogo

HULIANWANG DIGUI-47

AtivoComunicaçõesLEO
NORAD 65050·PAYLOAD·🇨🇳 China

Lançado Jul 30, 2025 de Wenchang Space Launch Site

Loading…

Próximas Passagens (próximas 24 horas)

TLE

AtualizadoSource: Space-Track

Época: Sep 14, 2026, 20:55 UTC

1 65050U 25162H   26257.87184164 -.00000076  00000-0  10418-3 0  9994
2 65050  50.0034 303.8467 0000659 264.5743  95.5054 13.29330028 55292

Acompanhe HULIANWANG DIGUI-47 em tempo real com AllMySat

Download on the App Store